Location: Limerick
(52.6800°N, 8.6400°W)
Time: 20:50:07
(UTC+01:00)

Sapphire - Visible Passes

Search period start: 28 April 2016 00:00
Search period end: 08 May 2016 00:00
Orbit: 784 x 797 km, 67.1° (Epoch: 28 April)

Date Brightness Start Highest point End Pass type
(mag) Time Alt. Az. Time Alt. Az. Time Alt. Az.
28 Apr ? 00:49:09 10° NNW 00:53:59 31° NNE 00:58:49 10° E visible
28 Apr ? 02:32:31 10° NW 02:38:00 82° SW 02:40:26 34° SSE visible
28 Apr ? 04:17:10 10° WNW 04:20:39 17° WSW 04:21:06 17° WSW visible
28 Apr ? 22:34:14 10° NW 22:37:55 18° N 22:41:36 10° NE visible
29 Apr ? 00:18:31 10° NNW 00:23:09 27° NNE 00:27:46 10° E visible
29 Apr ? 02:01:53 10° NW 02:07:22 81° NE 02:09:54 33° SE visible
29 Apr ? 03:46:05 10° WNW 03:50:13 23° WSW 03:50:35 22° WSW visible
29 Apr ? 22:03:16 10° NW 22:06:58 18° N 22:10:39 10° NE visible
29 Apr ? 23:47:51 10° NNW 23:52:17 24° NNE 23:56:41 10° ENE visible
30 Apr ? 01:31:15 10° NW 01:36:42 65° NE 01:39:30 29° ESE visible
30 Apr ? 03:15:09 10° NW 03:19:47 29° WSW 03:20:12 29° WSW visible
30 Apr ? 23:17:11 10° NNW 23:21:23 22° NNE 23:25:35 10° ENE visible
01 May ? 01:00:38 10° NW 01:06:00 53° NE 01:09:11 24° ESE visible
01 May ? 02:44:19 10° NW 02:49:18 37° WSW 02:49:53 36° SW visible
01 May ? 22:46:26 10° NNW 22:50:29 20° NNE 22:54:29 10° ENE visible
02 May ? 00:30:01 10° NNW 00:35:15 44° NE 00:38:57 18° ESE visible
02 May ? 02:13:33 10° NW 02:18:47 48° WSW 02:19:39 44° SSW visible
02 May ? 22:15:40 10° NW 22:19:32 19° N 22:23:24 10° NE visible
02 May ? 23:59:24 10° NNW 00:04:29 37° NE 00:08:46 14° E visible
03 May ? 01:42:50 10° NW 01:48:14 61° WSW 01:49:28 48° S visible
03 May ? 03:28:35 10° W 03:30:10 12° W 03:30:10 12° W visible
03 May ? 21:44:51 10° NW 21:48:36 18° N 21:52:20 10° NE visible
03 May ? 23:28:47 10° NNW 23:33:41 32° NNE 23:38:33 10° E visible
04 May ? 01:12:10 10° NW 01:17:38 78° SW 01:19:20 45° SSE visible
04 May ? 02:56:58 10° WNW 03:00:03 16° WSW 03:00:03 16° WSW visible
04 May ? 22:58:09 10° NNW 23:02:51 28° NNE 23:07:31 10° E visible
05 May ? 00:41:31 10° NW 00:47:01 85° NE 00:49:16 37° SE visible
05 May ? 02:25:49 10° WNW 02:29:49 21° WSW 02:29:58 21° WSW visible
05 May ? 22:27:31 10° NNW 22:31:59 25° NNE 22:36:27 10° E visible
06 May ? 00:10:53 10° NW 00:16:21 69° NE 00:19:13 28° SE visible
06 May ? 01:54:51 10° NW 01:59:22 27° WSW 01:59:55 27° WSW visible
06 May ? 21:56:50 10° NNW 22:01:06 22° NNE 22:05:21 10° ENE visible
06 May ? 23:40:16 10° NW 23:45:39 56° NE 23:49:12 21° ESE visible
07 May ? 01:24:00 10° NW 01:28:54 35° WSW 01:29:55 32° SW visible
07 May ? 23:09:39 10° NNW 23:14:55 46° NE 23:19:14 15° ESE visible
